www.cux-wetter.de
Wetterdaten: Samstag, 07.06.2008
Datum Zeit Temp. A. Feuchte A. Luftdruck Regen Wind Richtung Richtung Sonnenschein Solar Taupunkt Windchill Windben
07.06.2008 00:00 19,0 C 59 % 1013,5 hPa 0,0 l/m 12,2 km/h (2 Bft) O 90 0 min 0 W/m 10,8 C 16,8 C 12,2 km/h (2 Bft)
07.06.2008 00:04 19,0 C 58 % 1013,5 hPa 0,0 l/m 11,0 km/h (2 Bft) O 100 0 min 0 W/m 10,5 C 17,2 C 11,0 km/h (2 Bft)
07.06.2008 00:09 19,0 C 59 % 1013,5 hPa 0,0 l/m 12,0 km/h (2 Bft) O 100 0 min 0 W/m 10,8 C 16,9 C 12,0 km/h (2 Bft)
07.06.2008 00:14 18,9 C 59 % 1013,5 hPa 0,0 l/m 9,2 km/h (2 Bft) O-SO 115 0 min 0 W/m 10,7 C 17,7 C 9,2 km/h (2 Bft)
07.06.2008 00:19 18,9 C 59 % 1013,5 hPa 0,0 l/m 7,5 km/h (2 Bft) O 95 0 min 0 W/m 10,7 C 18,4 C 7,5 km/h (2 Bft)
07.06.2008 00:24 18,8 C 60 % 1013,5 hPa 0,0 l/m 8,7 km/h (2 Bft) O 100 0 min 0 W/m 10,9 C 17,8 C 8,7 km/h (2 Bft)
07.06.2008 00:29 18,9 C 61 % 1013,5 hPa 0,0 l/m 7,4 km/h (2 Bft) O 85 0 min 0 W/m 11,2 C 18,5 C 7,4 km/h (2 Bft)
07.06.2008 00:34 18,9 C 61 % 1013,5 hPa 0,0 l/m 6,7 km/h (2 Bft) O-SO 105 0 min 0 W/m 11,2 C 18,8 C 6,7 km/h (2 Bft)
07.06.2008 00:40 18,8 C 61 % 1013,5 hPa 0,0 l/m 5,0 km/h (1 Bft) SO 130 0 min 0 W/m 11,1 C 18,8 C 5,0 km/h (1 Bft)
07.06.2008 00:45 18,8 C 61 % 1013,5 hPa 0,0 l/m 9,2 km/h (2 Bft) O 90 0 min 0 W/m 11,1 C 17,6 C 9,2 km/h (2 Bft)
07.06.2008 00:50 18,8 C 61 % 1013,5 hPa 0,0 l/m 8,2 km/h (2 Bft) O-NO 60 0 min 0 W/m 11,1 C 18,0 C 8,2 km/h (2 Bft)
07.06.2008 00:55 18,8 C 61 % 1013,5 hPa 0,0 l/m 8,9 km/h (2 Bft) O 95 0 min 0 W/m 11,1 C 17,7 C 8,9 km/h (2 Bft)
07.06.2008 00:59 18,8 C 61 % 1013,5 hPa 0,0 l/m 11,0 km/h (2 Bft) O 80 0 min 0 W/m 11,1 C 17,0 C 11,0 km/h (2 Bft)
07.06.2008 01:04 18,7 C 62 % 1013,5 hPa 0,0 l/m 9,4 km/h (2 Bft) SO 125 0 min 0 W/m 11,3 C 17,4 C 9,4 km/h (2 Bft)
07.06.2008 01:09 18,7 C 62 % 1013,5 hPa 0,0 l/m 13,3 km/h (3 Bft) O-SO 105 0 min 0 W/m 11,3 C 16,1 C 13,3 km/h (3 Bft)
07.06.2008 01:14 18,6 C 61 % 1013,5 hPa 0,0 l/m 9,0 km/h (2 Bft) SO 135 0 min 0 W/m 10,9 C 17,5 C 9,0 km/h (2 Bft)
07.06.2008 01:20 18,7 C 62 % 1013,5 hPa 0,0 l/m 9,9 km/h (2 Bft) O-SO 105 0 min 0 W/m 11,3 C 17,2 C 9,9 km/h (2 Bft)
07.06.2008 01:25 18,7 C 61 % 1013,5 hPa 0,0 l/m 10,8 km/h (2 Bft) O 95 0 min 0 W/m 11,0 C 16,9 C 10,8 km/h (2 Bft)
07.06.2008 01:30 18,6 C 62 % 1013,5 hPa 0,0 l/m 8,7 km/h (2 Bft) SO 140 0 min 0 W/m 11,2 C 17,6 C 8,7 km/h (2 Bft)
07.06.2008 01:35 18,7 C 62 % 1013,5 hPa 0,0 l/m 8,5 km/h (2 Bft) O-SO 115 0 min 0 W/m 11,3 C 17,8 C 8,5 km/h (2 Bft)
07.06.2008 01:40 18,5 C 62 % 1013,5 hPa 0,0 l/m 6,7 km/h (2 Bft) O-NO 75 0 min 0 W/m 11,1 C 18,4 C 6,7 km/h (2 Bft)
07.06.2008 01:44 18,6 C 62 % 1013,5 hPa 0,0 l/m 6,5 km/h (2 Bft) SO 135 0 min 0 W/m 11,2 C 18,6 C 6,5 km/h (2 Bft)
07.06.2008 01:49 18,6 C 62 % 1013,5 hPa 0,0 l/m 7,9 km/h (2 Bft) O-SO 110 0 min 0 W/m 11,2 C 17,9 C 7,9 km/h (2 Bft)
07.06.2008 01:54 18,6 C 62 % 1013,5 hPa 0,0 l/m 8,5 km/h (2 Bft) SO 135 0 min 0 W/m 11,2 C 17,7 C 8,5 km/h (2 Bft)
07.06.2008 01:59 18,6 C 63 % 1013,5 hPa 0,0 l/m 12,6 km/h (3 Bft) O-SO 115 0 min 0 W/m 11,4 C 16,2 C 12,6 km/h (3 Bft)
07.06.2008 02:05 18,7 C 63 % 1013,5 hPa 0,0 l/m 7,8 km/h (2 Bft) S-SO 150 0 min 0 W/m 11,5 C 18,1 C 7,8 km/h (2 Bft)
07.06.2008 02:10 18,7 C 63 % 1013,5 hPa 0,0 l/m 2,5 km/h (1 Bft) O 95 0 min 0 W/m 11,5 C 18,7 C 2,5 km/h (1 Bft)
07.06.2008 02:15 18,6 C 63 % 1013,5 hPa 0,0 l/m 7,0 km/h (2 Bft) O-SO 115 0 min 0 W/m 11,4 C 18,3 C 7,0 km/h (2 Bft)
07.06.2008 02:20 18,7 C 63 % 1013,5 hPa 0,0 l/m 9,8 km/h (2 Bft) O-NO 70 0 min 0 W/m 11,5 C 17,3 C 9,8 km/h (2 Bft)
07.06.2008 02:25 18,8 C 63 % 1013,5 hPa 0,0 l/m 2,5 km/h (1 Bft) O-NO 70 0 min 0 W/m 11,6 C 18,8 C 2,5 km/h (1 Bft)
07.06.2008 02:29 18,8 C 63 % 1013,5 hPa 0,0 l/m 10,2 km/h (2 Bft) O-SO 105 0 min 0 W/m 11,6 C 17,2 C 10,2 km/h (2 Bft)
07.06.2008 02:34 18,8 C 63 % 1013,5 hPa 0,0 l/m 9,6 km/h (2 Bft) O 85 0 min 0 W/m 11,6 C 17,5 C 9,6 km/h (2 Bft)
07.06.2008 02:39 18,7 C 63 % 1013,5 hPa 0,0 l/m 4,5 km/h (1 Bft) SO 130 0 min 0 W/m 11,5 C 18,7 C 4,5 km/h (1 Bft)
07.06.2008 02:44 18,8 C 63 % 1013,5 hPa 0,0 l/m 7,8 km/h (2 Bft) O 90 0 min 0 W/m 11,6 C 18,2 C 7,8 km/h (2 Bft)
07.06.2008 02:49 18,8 C 63 % 1013,5 hPa 0,0 l/m 0,7 km/h (0 Bft) O 90 0 min 0 W/m 11,6 C 18,8 C 0,7 km/h (0 Bft)
07.06.2008 02:54 18,7 C 64 % 1013,5 hPa 0,0 l/m 8,5 km/h (2 Bft) O 100 0 min 0 W/m 11,7 C 17,8 C 8,5 km/h (2 Bft)
07.06.2008 02:59 18,7 C 64 % 1013,5 hPa 0,0 l/m 10,6 km/h (2 Bft) O 85 0 min 0 W/m 11,7 C 17,0 C 10,6 km/h (2 Bft)
07.06.2008 03:05 18,7 C 64 % 1013,5 hPa 0,0 l/m 6,2 km/h (2 Bft) SO 125 0 min 0 W/m 11,7 C 18,7 C 6,2 km/h (2 Bft)
07.06.2008 03:09 18,7 C 64 % 1013,5 hPa 0,0 l/m 1,2 km/h (1 Bft) O 85 0 min 0 W/m 11,7 C 18,7 C 1,2 km/h (1 Bft)
07.06.2008 03:14 18,6 C 64 % 1013,5 hPa 0,0 l/m 0,9 km/h (0 Bft) O 85 0 min 0 W/m 11,7 C 18,6 C 0,9 km/h (0 Bft)
07.06.2008 03:19 18,6 C 64 % 1013,5 hPa 0,0 l/m 6,9 km/h (2 Bft) O-SO 105 0 min 0 W/m 11,7 C 18,4 C 6,9 km/h (2 Bft)
07.06.2008 03:24 18,7 C 64 % 1013,5 hPa 0,0 l/m 0,3 km/h (0 Bft) S-SO 155 0 min 0 W/m 11,7 C 18,7 C 0,3 km/h (0 Bft)
07.06.2008 03:29 18,7 C 64 % 1013,5 hPa 0,0 l/m 4,8 km/h (1 Bft) S 185 0 min 0 W/m 11,7 C 18,7 C 4,8 km/h (1 Bft)
07.06.2008 03:34 18,7 C 64 % 1013,5 hPa 0,0 l/m 6,8 km/h (2 Bft) NO 50 0 min 0 W/m 11,7 C 18,5 C 6,8 km/h (2 Bft)
07.06.2008 03:39 18,6 C 64 % 1013,5 hPa 0,0 l/m 1,8 km/h (1 Bft) O 100 0 min 0 W/m 11,7 C 18,6 C 1,8 km/h (1 Bft)
07.06.2008 03:44 18,4 C 63 % 1013,5 hPa 0,0 l/m 6,3 km/h (2 Bft) NO 35 0 min 0 W/m 11,2 C 18,4 C 6,3 km/h (2 Bft)
07.06.2008 03:49 18,5 C 64 % 1013,5 hPa 0,0 l/m 5,4 km/h (2 Bft) O 90 0 min 0 W/m 11,6 C 18,5 C 5,4 km/h (2 Bft)
07.06.2008 03:54 18,5 C 64 % 1013,5 hPa 0,0 l/m 5,9 km/h (2 Bft) O-NO 75 0 min 0 W/m 11,6 C 18,5 C 5,9 km/h (2 Bft)
07.06.2008 03:59 18,4 C 64 % 1013,5 hPa 0,0 l/m 5,9 km/h (2 Bft) O-NO 75 0 min 0 W/m 11,5 C 18,4 C 5,9 km/h (2 Bft)
07.06.2008 04:04 18,4 C 64 % 1013,5 hPa 0,0 l/m 8,8 km/h (2 Bft) O 100 0 min 0 W/m 11,5 C 17,3 C 8,8 km/h (2 Bft)
07.06.2008 04:09 18,4 C 64 % 1013,5 hPa 0,0 l/m 5,4 km/h (2 Bft) O 90 0 min 0 W/m 11,5 C 18,4 C 5,4 km/h (2 Bft)
07.06.2008 04:14 18,4 C 64 % 1013,5 hPa 0,0 l/m 3,5 km/h (1 Bft) O 90 0 min 0 W/m 11,5 C 18,4 C 3,5 km/h (1 Bft)
07.06.2008 04:19 18,3 C 65 % 1013,5 hPa 0,0 l/m 4,8 km/h (1 Bft) O 90 0 min 0 W/m 11,6 C 18,3 C 4,8 km/h (1 Bft)
07.06.2008 04:24 18,3 C 64 % 1013,5 hPa 0,0 l/m 0,6 km/h (0 Bft) O 95 0 min 0 W/m 11,4 C 18,3 C 0,6 km/h (0 Bft)
07.06.2008 04:29 18,4 C 64 % 1013,5 hPa 0,0 l/m 4,2 km/h (1 Bft) SO 135 0 min 0 W/m 11,5 C 18,4 C 4,2 km/h (1 Bft)
07.06.2008 04:34 18,3 C 64 % 1013,5 hPa 0,0 l/m 0,8 km/h (0 Bft) O 90 0 min 0 W/m 11,4 C 18,3 C 0,8 km/h (0 Bft)
07.06.2008 04:39 18,4 C 65 % 1013,5 hPa 0,0 l/m 4,3 km/h (1 Bft) O-SO 110 0 min 0 W/m 11,7 C 18,4 C 4,3 km/h (1 Bft)
07.06.2008 04:44 18,4 C 64 % 1013,5 hPa 0,0 l/m 0,9 km/h (0 Bft) NO 55 0 min 0 W/m 11,5 C 18,4 C 0,9 km/h (0 Bft)
07.06.2008 04:49 18,4 C 64 % 1013,5 hPa 0,0 l/m 3,5 km/h (1 Bft) O-NO 65 0 min 0 W/m 11,5 C 18,4 C 3,5 km/h (1 Bft)
07.06.2008 04:55 18,3 C 65 % 1013,5 hPa 0,0 l/m 1,9 km/h (1 Bft) O-SO 105 0 min 0 W/m 11,6 C 18,3 C 1,9 km/h (1 Bft)
07.06.2008 05:00 18,2 C 64 % 1013,5 hPa 0,0 l/m 5,1 km/h (1 Bft) O-SO 120 0 min 0 W/m 11,3 C 18,2 C 5,1 km/h (1 Bft)
07.06.2008 05:04 18,2 C 65 % 1013,5 hPa 0,0 l/m 2,8 km/h (1 Bft) SO 125 0 min 0 W/m 11,5 C 18,2 C 2,8 km/h (1 Bft)
07.06.2008 05:09 18,3 C 65 % 1013,5 hPa 0,0 l/m 7,5 km/h (2 Bft) O 90 0 min 0 W/m 11,6 C 17,8 C 7,5 km/h (2 Bft)
07.06.2008 05:14 18,2 C 65 % 1013,5 hPa 0,0 l/m 6,8 km/h (2 Bft) O 85 0 min 0 W/m 11,5 C 18,0 C 6,8 km/h (2 Bft)
07.06.2008 05:19 18,2 C 65 % 1013,5 hPa 0,0 l/m 6,7 km/h (2 Bft) O 95 0 min 0 W/m 11,5 C 18,1 C 6,7 km/h (2 Bft)
07.06.2008 05:24 18,1 C 66 % 1013,5 hPa 0,0 l/m 1,0 km/h (0 Bft) O-NO 70 0 min 0 W/m 11,6 C 18,1 C 1,0 km/h (0 Bft)
07.06.2008 05:30 18,1 C 65 % 1013,5 hPa 0,0 l/m 1,8 km/h (1 Bft) N 350 0 min 0 W/m 11,4 C 18,1 C 1,8 km/h (1 Bft)
07.06.2008 05:35 18,1 C 65 % 1013,5 hPa 0,0 l/m 2,6 km/h (1 Bft) O 80 0 min 0 W/m 11,4 C 18,1 C 2,6 km/h (1 Bft)
07.06.2008 05:40 18,2 C 65 % 1013,5 hPa 0,0 l/m 6,8 km/h (2 Bft) O-SO 115 0 min 0 W/m 11,5 C 18,0 C 6,8 km/h (2 Bft)
07.06.2008 05:45 18,3 C 65 % 1013,5 hPa 0,0 l/m 2,8 km/h (1 Bft) O-SO 105 0 min 0 W/m 11,6 C 18,3 C 2,8 km/h (1 Bft)
07.06.2008 05:49 18,2 C 65 % 1013,5 hPa 0,0 l/m 1,6 km/h (1 Bft) SO 125 0 min 0 W/m 11,5 C 18,2 C 1,6 km/h (1 Bft)
07.06.2008 05:54 18,2 C 65 % 1013,5 hPa 0,0 l/m 6,6 km/h (2 Bft) O-SO 105 0 min 0 W/m 11,5 C 18,1 C 6,6 km/h (2 Bft)
07.06.2008 05:59 18,2 C 65 % 1013,5 hPa 0,0 l/m 5,2 km/h (1 Bft) SO 135 0 min 0 W/m 11,5 C 18,2 C 5,2 km/h (1 Bft)
07.06.2008 06:05 18,3 C 65 % 1013,5 hPa 0,0 l/m 3,4 km/h (1 Bft) O-SO 115 0 min 0 W/m 11,6 C 18,3 C 3,4 km/h (1 Bft)
07.06.2008 06:10 18,4 C 64 % 1013,5 hPa 0,0 l/m 7,6 km/h (2 Bft) O 80 0 min 0 W/m 11,5 C 17,8 C 7,6 km/h (2 Bft)
07.06.2008 06:15 18,2 C 65 % 1013,5 hPa 0,0 l/m 5,4 km/h (2 Bft) O-NO 70 0 min 0 W/m 11,5 C 18,2 C 5,4 km/h (2 Bft)
07.06.2008 06:20 18,2 C 65 % 1013,5 hPa 0,0 l/m 7,9 km/h (2 Bft) N-NO 30 0 min 0 W/m 11,5 C 17,5 C 7,9 km/h (2 Bft)
07.06.2008 06:24 18,1 C 66 % 1013,5 hPa 0,0 l/m 6,7 km/h (2 Bft) O 90 0 min 0 W/m 11,6 C 18,0 C 6,7 km/h (2 Bft)
07.06.2008 06:29 18,2 C 66 % 1013,5 hPa 0,0 l/m 10,1 km/h (2 Bft) O 100 0 min 0 W/m 11,7 C 16,6 C 10,1 km/h (2 Bft)
07.06.2008 06:34 18,3 C 65 % 1013,5 hPa 0,0 l/m 8,9 km/h (2 Bft) O 85 0 min 0 W/m 11,6 C 17,2 C 8,9 km/h (2 Bft)
07.06.2008 06:39 18,4 C 65 % 1013,5 hPa 0,0 l/m 6,8 km/h (2 Bft) O 80 0 min 0 W/m 11,7 C 18,2 C 6,8 km/h (2 Bft)
07.06.2008 06:44 18,4 C 65 % 1013,5 hPa 0,0 l/m 3,9 km/h (1 Bft) O-NO 75 0 min 0 W/m 11,7 C 18,4 C 3,9 km/h (1 Bft)
07.06.2008 06:49 18,5 C 65 % 1013,5 hPa 0,0 l/m 2,4 km/h (1 Bft) O-NO 60 0 min 0 W/m 11,8 C 18,5 C 2,4 km/h (1 Bft)
07.06.2008 06:54 18,4 C 65 % 1013,5 hPa 0,0 l/m 7,9 km/h (2 Bft) S-SO 150 0 min 0 W/m 11,7 C 17,7 C 7,9 km/h (2 Bft)
07.06.2008 06:59 18,5 C 65 % 1013,5 hPa 0,0 l/m 8,4 km/h (2 Bft) SO 135 0 min 0 W/m 11,8 C 17,6 C 8,4 km/h (2 Bft)
07.06.2008 07:04 18,4 C 65 % 1013,5 hPa 0,0 l/m 10,8 km/h (2 Bft) O-SO 105 0 min 0 W/m 11,7 C 16,6 C 10,8 km/h (2 Bft)
07.06.2008 07:09 18,2 C 65 % 1013,5 hPa 0,0 l/m 13,4 km/h (3 Bft) O-NO 65 0 min 0 W/m 11,5 C 15,5 C 13,4 km/h (3 Bft)
07.06.2008 07:14 18,2 C 66 % 1013,5 hPa 0,0 l/m 8,4 km/h (2 Bft) O 80 0 min 0 W/m 11,7 C 17,3 C 8,4 km/h (2 Bft)
07.06.2008 07:19 18,2 C 66 % 1013,5 hPa 0,0 l/m 9,1 km/h (2 Bft) O 90 0 min 0 W/m 11,7 C 17,0 C 9,1 km/h (2 Bft)
07.06.2008 07:24 18,3 C 66 % 1013,5 hPa 0,0 l/m 10,1 km/h (2 Bft) O 100 0 min 0 W/m 11,8 C 16,7 C 10,1 km/h (2 Bft)
07.06.2008 07:29 18,4 C 66 % 1013,5 hPa 0,0 l/m 10,8 km/h (2 Bft) SO 125 0 min 0 W/m 11,9 C 16,6 C 10,8 km/h (2 Bft)
07.06.2008 07:34 18,4 C 65 % 1013,5 hPa 0,0 l/m 6,8 km/h (2 Bft) O-SO 110 0 min 0 W/m 11,7 C 18,2 C 6,8 km/h (2 Bft)
07.06.2008 07:39 18,4 C 66 % 1013,5 hPa 0,0 l/m 13,2 km/h (3 Bft) O 100 0 min 0 W/m 11,9 C 15,8 C 13,2 km/h (3 Bft)
07.06.2008 07:44 18,6 C 66 % 1014,5 hPa 0,0 l/m 11,8 km/h (2 Bft) SO 140 0 min 0 W/m 12,1 C 16,5 C 11,8 km/h (2 Bft)
07.06.2008 07:45 18,6 C 66 % 1014,5 hPa 0,0 l/m 11,8 km/h (2 Bft) SO 140 0 min 0 W/m 12,1 C 16,5 C 11,8 km/h (2 Bft)
07.06.2008 07:50 18,6 C 66 % 1014,5 hPa 0,0 l/m 9,9 km/h (2 Bft) O 95 0 min 0 W/m 12,1 C 17,1 C 9,9 km/h (2 Bft)
07.06.2008 07:55 18,6 C 66 % 1014,5 hPa 0,0 l/m 9,9 km/h (2 Bft) S-SO 155 0 min 0 W/m 12,1 C 17,1 C 9,9 km/h (2 Bft)
07.06.2008 07:59 18,4 C 65 % 1013,5 hPa 0,0 l/m 12,9 km/h (3 Bft) O-SO 110 0 min 0 W/m 11,7 C 15,9 C 12,9 km/h (3 Bft)
07.06.2008 08:04 18,4 C 66 % 1014,5 hPa 0,0 l/m 11,6 km/h (2 Bft) SO 130 0 min 0 W/m 11,9 C 16,3 C 11,6 km/h (2 Bft)
07.06.2008 08:09 18,5 C 66 % 1014,5 hPa 0,0 l/m 8,1 km/h (2 Bft) O-SO 115 0 min 0 W/m 12,0 C 17,7 C 8,1 km/h (2 Bft)
07.06.2008 08:14 18,6 C 66 % 1013,5 hPa 0,0 l/m 11,3 km/h (2 Bft) O 100 0 min 0 W/m 12,1 C 16,6 C 11,3 km/h (2 Bft)
07.06.2008 08:20 18,7 C 66 % 1014,5 hPa 0,0 l/m 10,7 km/h (2 Bft) O-SO 110 0 min 0 W/m 12,2 C 17,0 C 10,7 km/h (2 Bft)
07.06.2008 08:25 18,9 C 66 % 1014,5 hPa 0,0 l/m 8,8 km/h (2 Bft) O-SO 105 0 min 0 W/m 12,4 C 17,9 C 8,8 km/h (2 Bft)
07.06.2008 08:30 18,9 C 66 % 1014,5 hPa 0,0 l/m 10,3 km/h (2 Bft) SO 125 0 min 0 W/m 12,4 C 17,3 C 10,3 km/h (2 Bft)
07.06.2008 08:34 19,1 C 66 % 1014,5 hPa 0,0 l/m 2,9 km/h (1 Bft) SO 125 0 min 0 W/m 12,6 C 19,1 C 2,9 km/h (1 Bft)
07.06.2008 08:39 19,6 C 65 % 1014,5 hPa 0,0 l/m 11,8 km/h (2 Bft) O-SO 115 0 min 0 W/m 12,8 C 17,6 C 11,8 km/h (2 Bft)
07.06.2008 08:44 20,0 C 63 % 1014,5 hPa 0,0 l/m 9,7 km/h (2 Bft) SO 125 0 min 0 W/m 12,7 C 18,7 C 9,7 km/h (2 Bft)
07.06.2008 08:49 20,0 C 63 % 1014,5 hPa 0,0 l/m 10,6 km/h (2 Bft) O 90 0 min 0 W/m 12,7 C 18,4 C 10,6 km/h (2 Bft)
07.06.2008 08:54 20,1 C 63 % 1014,5 hPa 0,0 l/m 13,6 km/h (3 Bft) SO 130 0 min 0 W/m 12,8 C 17,7 C 13,6 km/h (3 Bft)
07.06.2008 08:59 20,4 C 63 % 1014,5 hPa 0,0 l/m 9,0 km/h (2 Bft) O-SO 115 0 min 0 W/m 13,1 C 19,4 C 9,0 km/h (2 Bft)
07.06.2008 09:04 20,4 C 62 % 1014,5 hPa 0,0 l/m 13,8 km/h (3 Bft) SO 140 0 min 0 W/m 12,9 C 18,0 C 13,8 km/h (3 Bft)
07.06.2008 09:09 20,2 C 62 % 1014,5 hPa 0,0 l/m 10,2 km/h (2 Bft) O-SO 110 0 min 0 W/m 12,7 C 18,8 C 10,2 km/h (2 Bft)
07.06.2008 09:14 20,3 C 63 % 1014,5 hPa 0,0 l/m 7,6 km/h (2 Bft) O-SO 120 0 min 0 W/m 13,0 C 19,8 C 7,6 km/h (2 Bft)
07.06.2008 09:19 20,4 C 63 % 1014,5 hPa 0,0 l/m 9,6 km/h (2 Bft) O 100 0 min 0 W/m 13,1 C 19,2 C 9,6 km/h (2 Bft)
07.06.2008 09:24 20,5 C 62 % 1014,5 hPa 0,0 l/m 8,7 km/h (2 Bft) O-SO 110 0 min 0 W/m 13,0 C 19,6 C 8,7 km/h (2 Bft)
07.06.2008 09:29 21,0 C 61 % 1014,5 hPa 0,0 l/m 9,7 km/h (2 Bft) O-SO 110 0 min 0 W/m 13,2 C 19,8 C 9,7 km/h (2 Bft)
07.06.2008 09:34 21,0 C 61 % 1014,5 hPa 0,0 l/m 10,9 km/h (2 Bft) SO 125 0 min 0 W/m 13,2 C 19,5 C 10,9 km/h (2 Bft)
07.06.2008 09:39 21,0 C 61 % 1014,5 hPa 0,0 l/m 15,9 km/h (3 Bft) O-SO 110 0 min 0 W/m 13,2 C 18,3 C 15,9 km/h (3 Bft)
07.06.2008 09:44 21,0 C 62 % 1014,5 hPa 0,0 l/m 14,9 km/h (3 Bft) O-SO 110 0 min 0 W/m 13,4 C 18,5 C 14,9 km/h (3 Bft)
07.06.2008 09:49 21,0 C 62 % 1014,5 hPa 0,0 l/m 15,1 km/h (3 Bft) SO 135 0 min 0 W/m 13,4 C 18,4 C 15,1 km/h (3 Bft)
07.06.2008 09:54 21,0 C 62 % 1014,5 hPa 0,0 l/m 12,2 km/h (2 Bft) NO 55 0 min 0 W/m 13,4 C 19,1 C 12,2 km/h (2 Bft)
07.06.2008 10:00 20,7 C 63 % 1014,5 hPa 0,0 l/m 10,1 km/h (2 Bft) O 80 0 min 0 W/m 13,4 C 19,4 C 10,1 km/h (2 Bft)
07.06.2008 10:04 20,8 C 63 % 1014,5 hPa 0,0 l/m 10,4 km/h (2 Bft) O 95 0 min 0 W/m 13,5 C 19,4 C 10,4 km/h (2 Bft)
07.06.2008 10:09 20,8 C 63 % 1014,5 hPa 0,0 l/m 12,6 km/h (3 Bft) SO 125 0 min 0 W/m 13,5 C 18,8 C 12,6 km/h (3 Bft)
07.06.2008 10:14 20,7 C 63 % 1014,5 hPa 0,0 l/m 15,3 km/h (3 Bft) O 100 0 min 0 W/m 13,4 C 18,0 C 15,3 km/h (3 Bft)
07.06.2008 10:19 20,7 C 63 % 1014,5 hPa 0,0 l/m 13,0 km/h (3 Bft) O 90 0 min 0 W/m 13,4 C 18,6 C 13,0 km/h (3 Bft)
07.06.2008 10:24 20,8 C 63 % 1014,5 hPa 0,0 l/m 12,0 km/h (2 Bft) SO 125 0 min 0 W/m 13,5 C 19,0 C 12,0 km/h (2 Bft)
07.06.2008 10:29 21,2 C 63 % 1014,5 hPa 0,0 l/m 7,6 km/h (2 Bft) O 90 0 min 0 W/m 13,9 C 20,8 C 7,6 km/h (2 Bft)
07.06.2008 10:35 21,9 C 62 % 1014,5 hPa 0,0 l/m 8,2 km/h (2 Bft) S-SO 155 0 min 0 W/m 14,3 C 21,3 C 8,2 km/h (2 Bft)
07.06.2008 10:40 23,0 C 58 % 1014,5 hPa 0,0 l/m 14,1 km/h (3 Bft) O-SO 120 0 min 0 W/m 14,3 C 21,1 C 14,1 km/h (3 Bft)
07.06.2008 10:45 23,2 C 57 % 1014,5 hPa 0,0 l/m 14,2 km/h (3 Bft) O 80 0 min 0 W/m 14,2 C 21,3 C 14,2 km/h (3 Bft)
07.06.2008 10:49 23,3 C 56 % 1014,5 hPa 0,0 l/m 13,0 km/h (3 Bft) O 100 0 min 0 W/m 14,0 C 21,6 C 13,0 km/h (3 Bft)
07.06.2008 10:54 23,2 C 57 % 1014,5 hPa 0,0 l/m 11,5 km/h (2 Bft) SO 145 0 min 0 W/m 14,2 C 21,8 C 11,5 km/h (2 Bft)
07.06.2008 10:59 23,0 C 56 % 1014,5 hPa 0,0 l/m 12,6 km/h (3 Bft) O-SO 115 0 min 0 W/m 13,7 C 21,4 C 12,6 km/h (3 Bft)
07.06.2008 11:05 23,0 C 57 % 1014,5 hPa 0,0 l/m 13,3 km/h (3 Bft) O-SO 105 0 min 0 W/m 14,0 C 21,2 C 13,3 km/h (3 Bft)
07.06.2008 11:10 23,2 C 57 % 1014,5 hPa 0,0 l/m 12,6 km/h (3 Bft) O-SO 110 0 min 0 W/m 14,2 C 21,6 C 12,6 km/h (3 Bft)
07.06.2008 11:15 23,4 C 57 % 1014,5 hPa 0,0 l/m 12,6 km/h (3 Bft) O-SO 110 0 min 0 W/m 14,4 C 21,8 C 12,6 km/h (3 Bft)
07.06.2008 11:19 24,0 C 56 % 1014,5 hPa 0,0 l/m 12,6 km/h (3 Bft) O-SO 115 0 min 0 W/m 14,7 C 22,5 C 12,6 km/h (3 Bft)
07.06.2008 11:24 24,4 C 56 % 1014,5 hPa 0,0 l/m 13,3 km/h (3 Bft) SO 125 0 min 0 W/m 15,0 C 22,9 C 13,3 km/h (3 Bft)
07.06.2008 11:29 24,6 C 55 % 1014,5 hPa 0,0 l/m 11,6 km/h (2 Bft) SO 130 0 min 0 W/m 14,9 C 23,4 C 11,6 km/h (2 Bft)
07.06.2008 11:34 24,9 C 53 % 1014,5 hPa 0,0 l/m 12,3 km/h (2 Bft) O-SO 120 0 min 0 W/m 14,6 C 23,6 C 12,3 km/h (2 Bft)
07.06.2008 11:39 25,2 C 52 % 1014,5 hPa 0,0 l/m 9,7 km/h (2 Bft) O-SO 115 0 min 0 W/m 14,6 C 24,4 C 9,7 km/h (2 Bft)
07.06.2008 11:44 25,4 C 52 % 1014,5 hPa 0,0 l/m 9,0 km/h (2 Bft) O-SO 110 0 min 0 W/m 14,8 C 24,8 C 9,0 km/h (2 Bft)
07.06.2008 11:49 25,4 C 52 % 1014,5 hPa 0,0 l/m 11,2 km/h (2 Bft) O 95 0 min 0 W/m 14,8 C 24,4 C 11,2 km/h (2 Bft)
07.06.2008 11:54 25,8 C 51 % 1014,5 hPa 0,0 l/m 10,8 km/h (2 Bft) O 100 0 min 0 W/m 14,9 C 24,9 C 10,8 km/h (2 Bft)
07.06.2008 11:59 26,1 C 52 % 1014,5 hPa 0,0 l/m 8,4 km/h (2 Bft) SO 140 0 min 0 W/m 15,5 C 25,7 C 8,4 km/h (2 Bft)
07.06.2008 12:04 26,4 C 51 % 1014,5 hPa 0,0 l/m 7,7 km/h (2 Bft) SO 130 0 min 0 W/m 15,4 C 26,1 C 7,7 km/h (2 Bft)
07.06.2008 12:09 26,7 C 49 % 1014,5 hPa 0,0 l/m 6,7 km/h (2 Bft) O-SO 115 0 min 0 W/m 15,1 C 26,6 C 6,7 km/h (2 Bft)
07.06.2008 12:14 26,8 C 49 % 1014,5 hPa 0,0 l/m 9,7 km/h (2 Bft) O-NO 75 0 min 0 W/m 15,2 C 26,2 C 9,7 km/h (2 Bft)
07.06.2008 12:19 26,7 C 48 % 1014,5 hPa 0,0 l/m 12,4 km/h (2 Bft) SO 125 0 min 0 W/m 14,8 C 25,7 C 12,4 km/h (2 Bft)
07.06.2008 12:24 26,7 C 48 % 1014,5 hPa 0,0 l/m 12,7 km/h (3 Bft) O-SO 110 0 min 0 W/m 14,8 C 25,7 C 12,7 km/h (3 Bft)
07.06.2008 12:25 26,7 C 48 % 1014,5 hPa 0,0 l/m 12,7 km/h (3 Bft) O-SO 110 0 min 0 W/m 14,8 C 25,7 C 12,7 km/h (3 Bft)
07.06.2008 12:29 26,9 C 49 % 1014,5 hPa 0,0 l/m 7,2 km/h (2 Bft) SO 140 0 min 0 W/m 15,3 C 26,7 C 7,2 km/h (2 Bft)
07.06.2008 12:34 27,0 C 47 % 1014,5 hPa 0,0 l/m 2,2 km/h (1 Bft) O 100 0 min 0 W/m 14,7 C 27,0 C 2,2 km/h (1 Bft)
07.06.2008 12:40 27,0 C 47 % 1014,5 hPa 0,0 l/m 11,3 km/h (2 Bft) O-SO 115 0 min 0 W/m 14,7 C 26,2 C 11,3 km/h (2 Bft)
07.06.2008 12:45 26,9 C 48 % 1014,5 hPa 0,0 l/m 12,6 km/h (3 Bft) O 85 0 min 0 W/m 14,9 C 25,9 C 12,6 km/h (3 Bft)
07.06.2008 12:50 26,8 C 48 % 1014,5 hPa 0,0 l/m 7,6 km/h (2 Bft) O-SO 105 0 min 0 W/m 14,9 C 26,6 C 7,6 km/h (2 Bft)
07.06.2008 12:55 26,6 C 49 % 1014,5 hPa 0,0 l/m 7,9 km/h (2 Bft) O 95 0 min 0 W/m 15,0 C 26,3 C 7,9 km/h (2 Bft)
07.06.2008 13:00 26,6 C 49 % 1014,5 hPa 0,0 l/m 7,8 km/h (2 Bft) O 85 0 min 0 W/m 15,0 C 26,3 C 7,8 km/h (2 Bft)
07.06.2008 13:05 26,7 C 49 % 1014,5 hPa 0,0 l/m 17,3 km/h (3 Bft) O 90 0 min 0 W/m 15,1 C 25,1 C 17,3 km/h (3 Bft)
07.06.2008 13:10 26,7 C 48 % 1014,5 hPa 0,0 l/m 15,0 km/h (3 Bft) O 95 0 min 0 W/m 14,8 C 25,4 C 15,0 km/h (3 Bft)
07.06.2008 13:15 26,9 C 48 % 1014,5 hPa 0,0 l/m 12,2 km/h (2 Bft) O 100 0 min 0 W/m 14,9 C 25,9 C 12,2 km/h (2 Bft)
07.06.2008 13:20 26,9 C 47 % 1014,5 hPa 0,0 l/m 13,5 km/h (3 Bft) O-SO 115 0 min 0 W/m 14,6 C 25,8 C 13,5 km/h (3 Bft)
07.06.2008 13:25 27,1 C 47 % 1014,5 hPa 0,0 l/m 12,5 km/h (2 Bft) O-SO 110 0 min 0 W/m 14,8 C 26,1 C 12,5 km/h (2 Bft)
07.06.2008 13:30 27,2 C 47 % 1014,5 hPa 0,0 l/m 13,6 km/h (3 Bft) O-SO 110 0 min 0 W/m 14,9 C 26,1 C 13,6 km/h (3 Bft)
07.06.2008 13:35 27,4 C 46 % 1014,5 hPa 0,0 l/m 12,1 km/h (2 Bft) O 90 0 min 0 W/m 14,7 C 26,5 C 12,1 km/h (2 Bft)
07.06.2008 13:40 27,4 C 46 % 1014,5 hPa 0,0 l/m 13,9 km/h (3 Bft) O-SO 105 0 min 0 W/m 14,7 C 26,3 C 13,9 km/h (3 Bft)
07.06.2008 13:44 27,6 C 48 % 1014,5 hPa 0,0 l/m 11,9 km/h (2 Bft) SO 140 0 min 0 W/m 15,6 C 26,8 C 11,9 km/h (2 Bft)
07.06.2008 13:49 27,8 C 44 % 1014,5 hPa 0,0 l/m 11,5 km/h (2 Bft) O 100 0 min 0 W/m 14,4 C 27,1 C 11,5 km/h (2 Bft)
07.06.2008 13:54 27,8 C 44 % 1014,5 hPa 0,0 l/m 10,7 km/h (2 Bft) O-NO 75 0 min 0 W/m 14,4 C 27,2 C 10,7 km/h (2 Bft)
07.06.2008 13:59 27,8 C 44 % 1014,5 hPa 0,0 l/m 15,3 km/h (3 Bft) O-NO 75 0 min 0 W/m 14,4 C 26,7 C 15,3 km/h (3 Bft)
07.06.2008 14:04 27,8 C 45 % 1014,5 hPa 0,0 l/m 13,5 km/h (3 Bft) O-SO 105 0 min 0 W/m 14,8 C 26,8 C 13,5 km/h (3 Bft)
07.06.2008 14:09 27,8 C 45 % 1014,5 hPa 0,0 l/m 12,5 km/h (2 Bft) O 85 0 min 0 W/m 14,8 C 27,0 C 12,5 km/h (2 Bft)
07.06.2008 14:14 27,9 C 44 % 1014,5 hPa 0,0 l/m 10,6 km/h (2 Bft) O 90 0 min 0 W/m 14,5 C 27,3 C 10,6 km/h (2 Bft)
07.06.2008 14:19 27,9 C 44 % 1014,5 hPa 0,0 l/m 11,8 km/h (2 Bft) O 100 0 min 0 W/m 14,5 C 27,1 C 11,8 km/h (2 Bft)
07.06.2008 14:24 28,4 C 44 % 1014,5 hPa 0,0 l/m 7,5 km/h (2 Bft) O 95 0 min 0 W/m 14,9 C 28,2 C 7,5 km/h (2 Bft)
07.06.2008 14:29 28,5 C 42 % 1014,5 hPa 0,0 l/m 12,1 km/h (2 Bft) O-SO 110 0 min 0 W/m 14,3 C 27,8 C 12,1 km/h (2 Bft)
07.06.2008 14:34 28,4 C 41 % 1014,5 hPa 0,0 l/m 15,1 km/h (3 Bft) SO 130 0 min 0 W/m 13,9 C 27,4 C 15,1 km/h (3 Bft)
07.06.2008 14:40 28,3 C 40 % 1014,5 hPa 0,0 l/m 19,3 km/h (3 Bft) O-SO 115 0 min 0 W/m 13,4 C 27,0 C 19,3 km/h (3 Bft)
07.06.2008 14:45 28,1 C 41 % 1014,5 hPa 0,0 l/m 16,6 km/h (3 Bft) O-SO 115 0 min 0 W/m 13,6 C 26,9 C 16,6 km/h (3 Bft)
07.06.2008 14:50 28,3 C 41 % 1014,5 hPa 0,0 l/m 13,3 km/h (3 Bft) O-NO 75 0 min 0 W/m 13,8 C 27,5 C 13,3 km/h (3 Bft)
07.06.2008 14:54 28,6 C 41 % 1014,5 hPa 0,0 l/m 14,2 km/h (3 Bft) O-SO 120 0 min 0 W/m 14,0 C 27,7 C 14,2 km/h (3 Bft)
07.06.2008 14:59 28,4 C 44 % 1014,5 hPa 0,0 l/m 9,8 km/h (2 Bft) O-SO 110 0 min 0 W/m 14,9 C 27,9 C 9,8 km/h (2 Bft)
07.06.2008 15:05 28,3 C 44 % 1014,5 hPa 0,0 l/m 11,3 km/h (2 Bft) O 85 0 min 0 W/m 14,9 C 27,7 C 11,3 km/h (2 Bft)
07.06.2008 15:09 28,0 C 43 % 1014,5 hPa 0,0 l/m 11,7 km/h (2 Bft) O 95 0 min 0 W/m 14,2 C 27,3 C 11,7 km/h (2 Bft)
07.06.2008 15:14 28,0 C 44 % 1014,5 hPa 0,0 l/m 14,5 km/h (3 Bft) O 95 0 min 0 W/m 14,6 C 27,0 C 14,5 km/h (3 Bft)
07.06.2008 15:19 28,0 C 42 % 1014,5 hPa 0,0 l/m 19,3 km/h (3 Bft) O 80 0 min 0 W/m 13,9 C 26,6 C 19,3 km/h (3 Bft)
07.06.2008 15:24 27,8 C 40 % 1014,5 hPa 0,0 l/m 13,5 km/h (3 Bft) O 90 0 min 0 W/m 12,9 C 26,8 C 13,5 km/h (3 Bft)
07.06.2008 15:29 27,6 C 40 % 1014,5 hPa 0,0 l/m 18,6 km/h (3 Bft) O-NO 60 0 min 0 W/m 12,8 C 26,1 C 18,6 km/h (3 Bft)
07.06.2008 15:34 27,6 C 41 % 1014,5 hPa 0,0 l/m 12,2 km/h (2 Bft) O 90 0 min 0 W/m 13,1 C 26,8 C 12,2 km/h (2 Bft)
07.06.2008 15:39 27,7 C 42 % 1014,5 hPa 0,0 l/m 2,9 km/h (1 Bft) NO 45 0 min 0 W/m 13,6 C 27,7 C 2,9 km/h (1 Bft)
07.06.2008 15:44 27,9 C 41 % 1014,5 hPa 0,0 l/m 13,2 km/h (3 Bft) NO 45 0 min 0 W/m 13,4 C 27,0 C 13,2 km/h (3 Bft)
07.06.2008 15:49 28,0 C 41 % 1014,5 hPa 0,0 l/m 10,7 km/h (2 Bft) NO 55 0 min 0 W/m 13,5 C 27,4 C 10,7 km/h (2 Bft)
07.06.2008 15:54 27,9 C 41 % 1014,5 hPa 0,0 l/m 12,1 km/h (2 Bft) NO 40 0 min 0 W/m 13,4 C 27,1 C 12,1 km/h (2 Bft)
07.06.2008 16:00 27,9 C 42 % 1014,5 hPa 0,0 l/m 15,1 km/h (3 Bft) NO 50 0 min 0 W/m 13,8 C 26,8 C 15,1 km/h (3 Bft)
07.06.2008 16:04 27,8 C 43 % 1014,5 hPa 0,0 l/m 8,3 km/h (2 Bft) NO 40 0 min 0 W/m 14,1 C 27,5 C 8,3 km/h (2 Bft)
07.06.2008 16:09 27,9 C 42 % 1014,5 hPa 0,0 l/m 11,2 km/h (2 Bft) NO 40 0 min 0 W/m 13,8 C 27,2 C 11,2 km/h (2 Bft)
07.06.2008 16:15 28,1 C 42 % 1014,5 hPa 0,0 l/m 8,5 km/h (2 Bft) NO 40 0 min 0 W/m 14,0 C 27,8 C 8,5 km/h (2 Bft)
07.06.2008 16:20 28,0 C 41 % 1014,5 hPa 0,0 l/m 18,9 km/h (3 Bft) N 360 0 min 0 W/m 13,5 C 26,6 C 18,9 km/h (3 Bft)
07.06.2008 16:24 27,8 C 42 % 1014,5 hPa 0,0 l/m 9,8 km/h (2 Bft) N-NO 25 0 min 0 W/m 13,7 C 27,3 C 9,8 km/h (2 Bft)
07.06.2008 16:29 28,0 C 44 % 1014,5 hPa 0,0 l/m 9,3 km/h (2 Bft) O-NO 70 0 min 0 W/m 14,6 C 27,6 C 9,3 km/h (2 Bft)
07.06.2008 16:34 27,9 C 42 % 1014,5 hPa 0,0 l/m 13,2 km/h (3 Bft) O-NO 70 0 min 0 W/m 13,8 C 27,0 C 13,2 km/h (3 Bft)
07.06.2008 16:39 27,9 C 41 % 1014,5 hPa 0,0 l/m 10,0 km/h (2 Bft) O 85 0 min 0 W/m 13,4 C 27,4 C 10,0 km/h (2 Bft)
07.06.2008 16:44 28,0 C 41 % 1014,5 hPa 0,0 l/m 13,8 km/h (3 Bft) O 100 0 min 0 W/m 13,5 C 27,1 C 13,8 km/h (3 Bft)
07.06.2008 16:49 28,2 C 41 % 1014,5 hPa 0,0 l/m 8,6 km/h (2 Bft) O-NO 70 0 min 0 W/m 13,7 C 27,9 C 8,6 km/h (2 Bft)
07.06.2008 16:54 28,2 C 40 % 1014,5 hPa 0,0 l/m 8,7 km/h (2 Bft) O 95 0 min 0 W/m 13,3 C 27,9 C 8,7 km/h (2 Bft)
07.06.2008 16:59 28,2 C 38 % 1014,5 hPa 0,0 l/m 9,4 km/h (2 Bft) O 95 0 min 0 W/m 12,5 C 27,8 C 9,4 km/h (2 Bft)
07.06.2008 17:04 28,2 C 39 % 1014,5 hPa 0,0 l/m 8,3 km/h (2 Bft) O 80 0 min 0 W/m 12,9 C 27,9 C 8,3 km/h (2 Bft)
07.06.2008 17:09 28,1 C 39 % 1014,5 hPa 0,0 l/m 12,6 km/h (3 Bft) O-SO 105 0 min 0 W/m 12,8 C 27,3 C 12,6 km/h (3 Bft)
07.06.2008 17:14 28,1 C 39 % 1014,5 hPa 0,0 l/m 10,1 km/h (2 Bft) O 85 0 min 0 W/m 12,8 C 27,6 C 10,1 km/h (2 Bft)
07.06.2008 17:20 28,2 C 38 % 1014,5 hPa 0,0 l/m 8,6 km/h (2 Bft) O 90 0 min 0 W/m 12,5 C 27,9 C 8,6 km/h (2 Bft)
07.06.2008 17:25 28,0 C 38 % 1014,5 hPa 0,0 l/m 11,2 km/h (2 Bft) O 95 0 min 0 W/m 12,3 C 27,3 C 11,2 km/h (2 Bft)
07.06.2008 17:29 27,8 C 38 % 1014,5 hPa 0,0 l/m 11,3 km/h (2 Bft) O-SO 120 0 min 0 W/m 12,2 C 27,1 C 11,3 km/h (2 Bft)
07.06.2008 17:34 27,8 C 38 % 1014,5 hPa 0,0 l/m 11,4 km/h (2 Bft) SO 125 0 min 0 W/m 12,2 C 27,1 C 11,4 km/h (2 Bft)
07.06.2008 17:39 27,8 C 37 % 1014,5 hPa 0,0 l/m 8,7 km/h (2 Bft) O 90 0 min 0 W/m 11,8 C 27,4 C 8,7 km/h (2 Bft)
07.06.2008 17:44 27,8 C 37 % 1014,5 hPa 0,0 l/m 8,7 km/h (2 Bft) O 95 0 min 0 W/m 11,8 C 27,4 C 8,7 km/h (2 Bft)
07.06.2008 17:49 27,7 C 35 % 1014,5 hPa 0,0 l/m 8,5 km/h (2 Bft) O-SO 105 0 min 0 W/m 10,8 C 27,4 C 8,5 km/h (2 Bft)
07.06.2008 17:54 27,7 C 36 % 1014,5 hPa 0,0 l/m 6,1 km/h (2 Bft) O-SO 105 0 min 0 W/m 11,3 C 27,7 C 6,1 km/h (2 Bft)
07.06.2008 17:59 27,8 C 35 % 1014,5 hPa 0,0 l/m 11,6 km/h (2 Bft) O-NO 75 0 min 0 W/m 10,9 C 27,1 C 11,6 km/h (2 Bft)
07.06.2008 18:04 27,8 C 33 % 1014,5 hPa 0,0 l/m 16,3 km/h (3 Bft) O 80 0 min 0 W/m 10,0 C 26,6 C 16,3 km/h (3 Bft)
07.06.2008 18:09 27,7 C 33 % 1014,5 hPa 0,0 l/m 11,8 km/h (2 Bft) O 85 0 min 0 W/m 9,9 C 26,9 C 11,8 km/h (2 Bft)
07.06.2008 18:14 27,2 C 35 % 1014,5 hPa 0,0 l/m 10,0 km/h (2 Bft) O 90 0 min 0 W/m 10,4 C 26,6 C 10,0 km/h (2 Bft)
07.06.2008 18:19 26,9 C 36 % 1014,5 hPa 0,0 l/m 2,0 km/h (1 Bft) O 80 0 min 0 W/m 10,6 C 26,9 C 2,0 km/h (1 Bft)
07.06.2008 18:25 26,2 C 37 % 1014,5 hPa 0,0 l/m 5,9 km/h (2 Bft) O 95 0 min 0 W/m 10,3 C 26,2 C 5,9 km/h (2 Bft)
07.06.2008 18:30 26,0 C 39 % 1014,5 hPa 0,0 l/m 3,4 km/h (1 Bft) N-NO 15 0 min 0 W/m 11,0 C 26,0 C 3,4 km/h (1 Bft)
07.06.2008 18:35 25,8 C 42 % 1014,5 hPa 0,0 l/m 8,4 km/h (2 Bft) NO 50 0 min 0 W/m 11,9 C 25,4 C 8,4 km/h (2 Bft)
07.06.2008 18:39 25,7 C 43 % 1014,5 hPa 0,0 l/m 3,9 km/h (1 Bft) O-NO 60 0 min 0 W/m 12,2 C 25,7 C 3,9 km/h (1 Bft)
07.06.2008 18:44 25,5 C 43 % 1014,5 hPa 0,0 l/m 9,8 km/h (2 Bft) O-SO 120 0 min 0 W/m 12,0 C 24,8 C 9,8 km/h (2 Bft)
07.06.2008 18:49 25,4 C 44 % 1014,5 hPa 0,0 l/m 10,0 km/h (2 Bft) O-NO 75 0 min 0 W/m 12,2 C 24,6 C 10,0 km/h (2 Bft)
07.06.2008 18:54 25,4 C 44 % 1014,5 hPa 0,0 l/m 6,1 km/h (2 Bft) NO 45 0 min 0 W/m 12,2 C 25,4 C 6,1 km/h (2 Bft)
07.06.2008 18:59 25,4 C 44 % 1014,5 hPa 0,0 l/m 9,4 km/h (2 Bft) NO 55 0 min 0 W/m 12,2 C 24,7 C 9,4 km/h (2 Bft)
07.06.2008 19:04 25,4 C 45 % 1014,5 hPa 0,0 l/m 12,1 km/h (2 Bft) O-SO 105 0 min 0 W/m 12,6 C 24,2 C 12,1 km/h (2 Bft)
07.06.2008 19:09 25,4 C 46 % 1014,5 hPa 0,0 l/m 14,9 km/h (3 Bft) O 95 0 min 0 W/m 12,9 C 23,8 C 14,9 km/h (3 Bft)
07.06.2008 19:14 25,2 C 45 % 1014,5 hPa 0,0 l/m 15,1 km/h (3 Bft) SO 130 0 min 0 W/m 12,4 C 23,5 C 15,1 km/h (3 Bft)
07.06.2008 19:19 25,0 C 45 % 1014,5 hPa 0,0 l/m 9,2 km/h (2 Bft) S-SO 150 0 min 0 W/m 12,2 C 24,3 C 9,2 km/h (2 Bft)
07.06.2008 19:25 24,8 C 46 % 1014,5 hPa 0,0 l/m 8,9 km/h (2 Bft) O-SO 115 0 min 0 W/m 12,4 C 24,2 C 8,9 km/h (2 Bft)
07.06.2008 19:30 24,8 C 47 % 1014,5 hPa 0,0 l/m 7,8 km/h (2 Bft) O 90 0 min 0 W/m 12,7 C 24,4 C 7,8 km/h (2 Bft)
07.06.2008 19:35 24,6 C 48 % 1014,5 hPa 0,0 l/m 4,1 km/h (1 Bft) O-SO 115 0 min 0 W/m 12,8 C 24,6 C 4,1 km/h (1 Bft)
07.06.2008 19:39 24,4 C 49 % 1014,5 hPa 0,0 l/m 3,4 km/h (1 Bft) S-SO 150 0 min 0 W/m 13,0 C 24,4 C 3,4 km/h (1 Bft)
07.06.2008 19:44 24,4 C 49 % 1014,5 hPa 0,0 l/m 3,4 km/h (1 Bft) S-SO 150 0 min 0 W/m 13,0 C 24,4 C 3,4 km/h (1 Bft)
07.06.2008 19:49 24,1 C 49 % 1014,5 hPa 0,0 l/m 10,6 km/h (2 Bft) O 90 0 min 0 W/m 12,7 C 23,0 C 10,6 km/h (2 Bft)
07.06.2008 19:54 24,0 C 49 % 1014,5 hPa 0,0 l/m 14,1 km/h (3 Bft) SO 125 0 min 0 W/m 12,6 C 22,2 C 14,1 km/h (3 Bft)
07.06.2008 19:59 23,9 C 49 % 1014,5 hPa 0,0 l/m 8,9 km/h (2 Bft) O-NO 65 0 min 0 W/m 12,5 C 23,2 C 8,9 km/h (2 Bft)
07.06.2008 20:04 23,7 C 50 % 1014,5 hPa 0,0 l/m 14,5 km/h (3 Bft) NO 50 0 min 0 W/m 12,6 C 21,8 C 14,5 km/h (3 Bft)
07.06.2008 20:09 23,5 C 49 % 1014,5 hPa 0,0 l/m 14,5 km/h (3 Bft) O-SO 105 0 min 0 W/m 12,2 C 21,6 C 14,5 km/h (3 Bft)
07.06.2008 20:14 23,4 C 48 % 1014,5 hPa 0,0 l/m 15,0 km/h (3 Bft) O 90 0 min 0 W/m 11,8 C 21,4 C 15,0 km/h (3 Bft)
07.06.2008 20:19 23,2 C 49 % 1014,5 hPa 0,0 l/m 10,5 km/h (2 Bft) O 80 0 min 0 W/m 11,9 C 22,1 C 10,5 km/h (2 Bft)
07.06.2008 20:24 23,2 C 49 % 1014,5 hPa 0,0 l/m 9,2 km/h (2 Bft) O 100 0 min 0 W/m 11,9 C 22,4 C 9,2 km/h (2 Bft)
07.06.2008 20:30 23,0 C 51 % 1014,5 hPa 0,0 l/m 8,9 km/h (2 Bft) O-NO 60 0 min 0 W/m 12,3 C 22,2 C 8,9 km/h (2 Bft)
07.06.2008 20:35 22,9 C 51 % 1014,5 hPa 0,0 l/m 9,2 km/h (2 Bft) O-NO 70 0 min 0 W/m 12,2 C 22,1 C 9,2 km/h (2 Bft)
07.06.2008 20:39 22,8 C 51 % 1014,5 hPa 0,0 l/m 6,8 km/h (2 Bft) O-NO 65 0 min 0 W/m 12,1 C 22,7 C 6,8 km/h (2 Bft)
07.06.2008 20:44 22,6 C 53 % 1014,5 hPa 0,0 l/m 11,5 km/h (2 Bft) O 100 0 min 0 W/m 12,5 C 21,1 C 11,5 km/h (2 Bft)
07.06.2008 20:49 22,5 C 53 % 1014,5 hPa 0,0 l/m 1,1 km/h (1 Bft) O-NO 75 0 min 0 W/m 12,4 C 22,5 C 1,1 km/h (1 Bft)
07.06.2008 20:54 22,4 C 54 % 1015,5 hPa 0,0 l/m 11,8 km/h (2 Bft) NO 50 0 min 0 W/m 12,6 C 20,8 C 11,8 km/h (2 Bft)
07.06.2008 20:59 22,1 C 54 % 1015,5 hPa 0,0 l/m 10,4 km/h (2 Bft) O-NO 70 0 min 0 W/m 12,3 C 20,9 C 10,4 km/h (2 Bft)
07.06.2008 21:04 22,0 C 54 % 1015,5 hPa 0,0 l/m 8,9 km/h (2 Bft) O-NO 60 0 min 0 W/m 12,3 C 21,2 C 8,9 km/h (2 Bft)
07.06.2008 21:09 21,8 C 55 % 1015,5 hPa 0,0 l/m 12,4 km/h (2 Bft) O-NO 70 0 min 0 W/m 12,4 C 20,0 C 12,4 km/h (2 Bft)
07.06.2008 21:14 21,7 C 55 % 1015,5 hPa 0,0 l/m 10,6 km/h (2 Bft) NO 45 0 min 0 W/m 12,3 C 20,4 C 10,6 km/h (2 Bft)
07.06.2008 21:19 21,6 C 55 % 1015,5 hPa 0,0 l/m 7,6 km/h (2 Bft) N 5 0 min 0 W/m 12,2 C 21,2 C 7,6 km/h (2 Bft)
07.06.2008 21:24 21,4 C 56 % 1015,5 hPa 0,0 l/m 19,0 km/h (3 Bft) N 10 0 min 0 W/m 12,3 C 18,2 C 19,0 km/h (3 Bft)
07.06.2008 21:29 21,2 C 56 % 1015,5 hPa 0,0 l/m 11,5 km/h (2 Bft) N-NO 25 0 min 0 W/m 12,1 C 19,5 C 11,5 km/h (2 Bft)
07.06.2008 21:35 21,1 C 57 % 1015,5 hPa 0,0 l/m 13,5 km/h (3 Bft) NO 40 0 min 0 W/m 12,2 C 18,9 C 13,5 km/h (3 Bft)
07.06.2008 21:40 21,0 C 57 % 1015,5 hPa 0,0 l/m 6,3 km/h (2 Bft) NO 55 0 min 0 W/m 12,1 C 21,0 C 6,3 km/h (2 Bft)
07.06.2008 21:44 20,9 C 57 % 1015,5 hPa 0,0 l/m 9,8 km/h (2 Bft) NO 35 0 min 0 W/m 12,1 C 19,7 C 9,8 km/h (2 Bft)
07.06.2008 21:49 20,8 C 57 % 1015,5 hPa 0,0 l/m 5,3 km/h (1 Bft) NO 50 0 min 0 W/m 12,0 C 20,8 C 5,3 km/h (1 Bft)
07.06.2008 21:54 20,6 C 58 % 1015,5 hPa 0,0 l/m 5,3 km/h (1 Bft) N-NO 20 0 min 0 W/m 12,0 C 20,6 C 5,3 km/h (1 Bft)
07.06.2008 21:59 20,5 C 59 % 1015,5 hPa 0,0 l/m 5,6 km/h (2 Bft) NW 315 0 min 0 W/m 12,2 C 20,5 C 5,6 km/h (2 Bft)
07.06.2008 22:04 20,4 C 59 % 1015,5 hPa 0,0 l/m 8,5 km/h (2 Bft) NO 55 0 min 0 W/m 12,1 C 19,6 C 8,5 km/h (2 Bft)
07.06.2008 22:09 20,4 C 59 % 1016,5 hPa 0,0 l/m 15,3 km/h (3 Bft) O-NO 70 0 min 0 W/m 12,1 C 17,7 C 15,3 km/h (3 Bft)
07.06.2008 22:14 20,2 C 59 % 1016,5 hPa 0,0 l/m 1,7 km/h (1 Bft) N 355 0 min 0 W/m 11,9 C 20,2 C 1,7 km/h (1 Bft)
07.06.2008 22:19 20,1 C 58 % 1016,5 hPa 0,0 l/m 12,7 km/h (3 Bft) O-NO 75 0 min 0 W/m 11,6 C 18,0 C 12,7 km/h (3 Bft)
07.06.2008 22:24 20,0 C 58 % 1016,5 hPa 0,0 l/m 4,6 km/h (1 Bft) O 80 0 min 0 W/m 11,5 C 20,0 C 4,6 km/h (1 Bft)
07.06.2008 22:29 20,0 C 59 % 1016,5 hPa 0,0 l/m 9,3 km/h (2 Bft) O-SO 110 0 min 0 W/m 11,7 C 18,9 C 9,3 km/h (2 Bft)
07.06.2008 22:35 19,9 C 58 % 1016,5 hPa 0,0 l/m 9,2 km/h (2 Bft) NO 55 0 min 0 W/m 11,4 C 18,8 C 9,2 km/h (2 Bft)
07.06.2008 22:40 20,0 C 59 % 1016,5 hPa 0,0 l/m 9,3 km/h (2 Bft) O-NO 75 0 min 0 W/m 11,7 C 18,9 C 9,3 km/h (2 Bft)
07.06.2008 22:44 20,0 C 59 % 1016,5 hPa 0,0 l/m 6,7 km/h (2 Bft) NO 55 0 min 0 W/m 11,7 C 19,9 C 6,7 km/h (2 Bft)
07.06.2008 22:49 19,8 C 59 % 1016,5 hPa 0,0 l/m 5,6 km/h (2 Bft) O 100 0 min 0 W/m 11,6 C 19,8 C 5,6 km/h (2 Bft)
07.06.2008 22:54 19,7 C 59 % 1016,5 hPa 0,0 l/m 2,7 km/h (1 Bft) O-NO 70 0 min 0 W/m 11,5 C 19,7 C 2,7 km/h (1 Bft)
07.06.2008 22:59 19,7 C 59 % 1016,5 hPa 0,0 l/m 6,1 km/h (2 Bft) N 5 0 min 0 W/m 11,5 C 19,7 C 6,1 km/h (2 Bft)
07.06.2008 23:04 19,6 C 59 % 1016,5 hPa 0,0 l/m 0,9 km/h (0 Bft) N-NO 30 0 min 0 W/m 11,4 C 19,6 C 0,9 km/h (0 Bft)
07.06.2008 23:09 19,4 C 60 % 1016,5 hPa 0,0 l/m 4,1 km/h (1 Bft) NO 35 0 min 0 W/m 11,4 C 19,4 C 4,1 km/h (1 Bft)
07.06.2008 23:14 19,4 C 61 % 1016,5 hPa 0,0 l/m 6,5 km/h (2 Bft) O-NO 60 0 min 0 W/m 11,7 C 19,4 C 6,5 km/h (2 Bft)
07.06.2008 23:19 19,2 C 61 % 1016,5 hPa 0,0 l/m 0,8 km/h (0 Bft) NO 35 0 min 0 W/m 11,5 C 19,2 C 0,8 km/h (0 Bft)
07.06.2008 23:24 19,0 C 62 % 1016,5 hPa 0,0 l/m 8,7 km/h (2 Bft) O-NO 60 0 min 0 W/m 11,6 C 18,0 C 8,7 km/h (2 Bft)
07.06.2008 23:29 18,9 C 62 % 1016,5 hPa 0,0 l/m 5,0 km/h (1 Bft) O-SO 110 0 min 0 W/m 11,5 C 18,9 C 5,0 km/h (1 Bft)
07.06.2008 23:35 18,9 C 62 % 1016,5 hPa 0,0 l/m 1,6 km/h (1 Bft) O 95 0 min 0 W/m 11,5 C 18,9 C 1,6 km/h (1 Bft)
07.06.2008 23:40 19,0 C 62 % 1016,5 hPa 0,0 l/m 0,6 km/h (0 Bft) O-SO 105 0 min 0 W/m 11,6 C 19,0 C 0,6 km/h (0 Bft)
07.06.2008 23:44 18,8 C 62 % 1016,5 hPa 0,0 l/m 5,1 km/h (1 Bft) O 90 0 min 0 W/m 11,4 C 18,8 C 5,1 km/h (1 Bft)
07.06.2008 23:49 18,7 C 62 % 1016,5 hPa 0,0 l/m 7,6 km/h (2 Bft) O-NO 75 0 min 0 W/m 11,3 C 18,2 C 7,6 km/h (2 Bft)
07.06.2008 23:54 18,6 C 62 % 1016,5 hPa 0,0 l/m 7,8 km/h (2 Bft) O-NO 65 0 min 0 W/m 11,2 C 18,0 C 7,8 km/h (2 Bft)
07.06.2008 23:59 18,6 C 62 % 1017,5 hPa 0,0 l/m 4,2 km/h (1 Bft) O-NO 70 0 min 0 W/m 11,2 C 18,6 C 4,2 km/h (1 Bft)
_ Min-Zeit 05:24 18:04 00:00 - 03:24 - - - - 18:09 07:09 03:24
Minimum _ 18,1 C 33 % 1013,5 hPa - 0,3 km/h (0 Bft) - - - - 9,9 C 15,5 C 0,3 km/h (0 Bft)
_ Max-Zeit 14:54 05:24 23:59 00:00 14:40 - - 00:00 00:00 13:44 14:24 14:40
Maximum _ 28,6 C 66 % 1017,5 hPa 0,0 l/m 19,3 km/h
O-SO (3 Bft)
- - 0 min 0 W/m 15,6 C 28,2 C 19,3 km/h
O-SO (3 Bft)
Durchschnitt _ 22,3 C 55 % 1014,4 hPa #0,0 l/m 9,1 km/h (2 Bft) O - #0 min. 0 W/m 12,5 C 21,4 C 9,1 km/h (2 Bft)
copyright by Holger Just